Time,TemperatureF,DewpointF,PressureIn,WindDirection,WindDirectionDegrees,WindSpeedMPH,WindSpeedGustMPH,Humidity,HourlyPrecipIn,Conditions,Clouds,dailyrainin,SoftwareType,DateUTC
2013-01-03 00:03:00,21.0,16.0,30.16,NE,55,2.0,6.0,80,0.00,,,0.00,,2013-01-03 05:03:00,
2013-01-03 00:12:00,21.0,16.0,30.16,NE,55,2.0,6.0,80,0.00,,,0.00,,2013-01-03 05:12:00,
2013-01-03 00:23:00,21.0,16.0,30.17,ENE,57,0.0,5.0,80,0.00,,,0.00,,2013-01-03 05:23:00,
2013-01-03 00:33:00,20.0,15.0,30.17,NE,45,0.0,0.0,80,0.00,,,0.00,,2013-01-03 05:33:00,
2013-01-03 00:42:00,20.0,15.0,30.17,NE,45,0.0,0.0,80,0.00,,,0.00,,2013-01-03 05:42:00,
2013-01-03 00:52:00,20.0,15.0,30.17,NE,45,0.0,0.0,80,0.00,,,0.00,,2013-01-03 05:52:00,
2013-01-03 01:03:00,19.0,14.0,30.18,East,79,0.0,1.0,80,0.00,,,0.00,,2013-01-03 06:03:00,
2013-01-03 01:12:00,19.0,14.0,30.18,East,79,0.0,1.0,80,0.00,,,0.00,,2013-01-03 06:12:00,
2013-01-03 01:22:00,19.0,14.0,30.19,NE,42,2.0,3.0,80,0.00,,,0.00,,2013-01-03 06:22:00,
2013-01-03 01:33:00,18.0,13.0,30.19,NE,39,0.0,1.0,80,0.00,,,0.00,,2013-01-03 06:33:00,
2013-01-03 01:42:00,18.0,13.0,30.19,NE,39,0.0,1.0,80,0.00,,,0.00,,2013-01-03 06:42:00,
2013-01-03 01:52:00,18.0,13.0,30.19,NE,39,0.0,0.0,80,0.00,,,0.00,,2013-01-03 06:52:00,
2013-01-03 02:02:00,17.0,12.0,30.19,NE,38,0.0,3.0,80,0.00,,,0.00,,2013-01-03 07:02:00,
2013-01-03 02:12:00,17.0,12.0,30.19,NE,38,0.0,3.0,80,0.00,,,0.00,,2013-01-03 07:12:00,
2013-01-03 02:22:00,16.0,11.0,30.19,NE,38,1.0,3.0,80,0.00,,,0.00,,2013-01-03 07:22:00,
2013-01-03 02:33:00,16.0,10.0,30.20,NNE,18,0.0,5.0,77,0.00,,,0.00,,2013-01-03 07:33:00,
2013-01-03 02:42:00,16.0,10.0,30.20,NNE,18,0.0,5.0,77,0.00,,,0.00,,2013-01-03 07:42:00,
2013-01-03 02:52:00,15.0,9.0,30.20,ENE,68,1.0,3.0,76,0.00,,,0.00,,2013-01-03 07:52:00,
2013-01-03 03:02:00,14.0,8.0,30.20,ENE,59,1.0,5.0,75,0.00,,,0.00,,2013-01-03 08:02:00,
2013-01-03 03:12:00,14.0,8.0,30.20,ENE,59,1.0,5.0,75,0.00,,,0.00,,2013-01-03 08:12:00,
2013-01-03 03:22:00,13.0,7.0,30.19,NNE,21,3.0,6.0,75,0.00,,,0.00,,2013-01-03 08:22:00,
2013-01-03 03:33:00,12.0,6.0,30.20,NE,54,1.0,3.0,75,0.00,,,0.00,,2013-01-03 08:33:00,
2013-01-03 03:43:00,12.0,6.0,30.20,NE,54,1.0,3.0,75,0.00,,,0.00,,2013-01-03 08:43:00,
2013-01-03 03:53:00,11.0,5.0,30.21,ENE,73,3.0,5.0,75,0.00,,,0.00,,2013-01-03 08:53:00,
2013-01-03 04:03:00,10.0,4.0,30.21,ENE,78,1.0,6.0,76,0.00,,,0.00,,2013-01-03 09:03:00,
2013-01-03 04:12:00,10.0,4.0,30.21,ENE,78,1.0,6.0,76,0.00,,,0.00,,2013-01-03 09:12:00,
2013-01-03 04:22:00,10.0,4.0,30.21,NE,45,1.0,6.0,76,0.00,,,0.00,,2013-01-03 09:22:00,
2013-01-03 04:33:00,9.0,3.0,30.21,NE,55,3.0,6.0,76,0.00,,,0.00,,2013-01-03 09:33:00,
2013-01-03 04:43:00,9.0,3.0,30.21,NE,55,3.0,6.0,76,0.00,,,0.00,,2013-01-03 09:43:00,
2013-01-03 04:52:00,9.0,3.0,30.21,NE,39,2.0,8.0,77,0.00,,,0.00,,2013-01-03 09:52:00,
2013-01-03 05:02:00,8.0,2.0,30.21,NE,49,0.0,5.0,76,0.00,,,0.00,,2013-01-03 10:02:00,
2013-01-03 05:12:00,8.0,2.0,30.21,NE,49,0.0,5.0,76,0.00,,,0.00,,2013-01-03 10:12:00,
2013-01-03 05:23:00,7.0,1.0,30.22,ENE,58,2.0,3.0,76,0.00,,,0.00,,2013-01-03 10:23:00,
2013-01-03 05:33:00,7.0,1.0,30.21,NE,43,0.0,3.0,76,0.00,,,0.00,,2013-01-03 10:33:00,
2013-01-03 05:43:00,7.0,1.0,30.21,NE,43,0.0,3.0,76,0.00,,,0.00,,2013-01-03 10:43:00,
2013-01-03 05:52:00,6.0,0.0,30.22,NE,43,1.0,3.0,76,0.00,,,0.00,,2013-01-03 10:52:00,
2013-01-03 06:02:00,6.0,0.0,30.22,NE,43,0.0,2.0,77,0.00,,,0.00,,2013-01-03 11:02:00,
2013-01-03 06:12:00,6.0,0.0,30.22,NE,43,0.0,2.0,77,0.00,,,0.00,,2013-01-03 11:12:00,
2013-01-03 06:23:00,6.0,0.0,30.22,NE,43,0.0,2.0,77,0.00,,,0.00,,2013-01-03 11:23:00,
2013-01-03 06:33:00,5.0,0.0,30.22,NE,42,0.0,2.0,78,0.00,,,0.00,,2013-01-03 11:33:00,
2013-01-03 06:43:00,5.0,0.0,30.22,NE,42,0.0,2.0,78,0.00,,,0.00,,2013-01-03 11:43:00,
2013-01-03 06:53:00,5.0,0.0,30.22,NE,43,0.0,1.0,78,0.00,,,0.00,,2013-01-03 11:53:00,
2013-01-03 07:03:00,4.0,-1.0,30.22,NNE,14,0.0,1.0,78,0.00,,,0.00,,2013-01-03 12:03:00,
2013-01-03 07:12:00,4.0,-1.0,30.22,NNE,14,0.0,1.0,78,0.00,,,0.00,,2013-01-03 12:12:00,
2013-01-03 07:22:00,4.0,-2.0,30.22,NNE,14,0.0,0.0,77,0.00,,,0.00,,2013-01-03 12:22:00,
2013-01-03 07:33:00,4.0,-1.0,30.22,NNE,14,0.0,0.0,78,0.00,,,0.00,,2013-01-03 12:33:00,
2013-01-03 07:42:00,4.0,-1.0,30.22,NNE,14,0.0,0.0,78,0.00,,,0.00,,2013-01-03 12:42:00,
2013-01-03 07:53:00,3.0,-2.0,30.22,NNE,14,0.0,0.0,78,0.00,,,0.00,,2013-01-03 12:53:00,
2013-01-03 08:03:00,3.0,-2.0,30.22,NNE,14,0.0,0.0,79,0.00,,,0.00,,2013-01-03 13:03:00,
2013-01-03 08:13:00,3.0,-2.0,30.22,NNE,14,0.0,0.0,79,0.00,,,0.00,,2013-01-03 13:13:00,
2013-01-03 08:22:00,3.0,-2.0,30.22,NNE,14,0.0,0.0,80,0.00,,,0.00,,2013-01-03 13:22:00,
2013-01-03 08:33:00,3.0,-2.0,30.22,NNE,13,0.0,0.0,80,0.00,,,0.00,,2013-01-03 13:33:00,
2013-01-03 08:42:00,3.0,-2.0,30.22,NNE,13,0.0,0.0,80,0.00,,,0.00,,2013-01-03 13:42:00,
2013-01-03 08:52:00,4.0,-1.0,30.22,NNE,14,0.0,0.0,80,0.00,,,0.00,,2013-01-03 13:52:00,
2013-01-03 09:03:00,5.0,0.0,30.21,NNE,14,0.0,2.0,79,0.00,,,0.00,,2013-01-03 14:03:00,
2013-01-03 09:12:00,5.0,0.0,30.21,NNE,14,0.0,2.0,79,0.00,,,0.00,,2013-01-03 14:12:00,
2013-01-03 09:23:00,6.0,1.0,30.22,NNE,15,0.0,2.0,78,0.00,,,0.00,,2013-01-03 14:23:00,
2013-01-03 09:33:00,8.0,1.0,30.22,North,8,0.0,2.0,74,0.00,,,0.00,,2013-01-03 14:33:00,
2013-01-03 09:43:00,8.0,1.0,30.22,North,8,0.0,2.0,74,0.00,,,0.00,,2013-01-03 14:43:00,
2013-01-03 09:53:00,10.0,3.0,30.22,North,10,1.0,2.0,71,0.00,,,0.00,,2013-01-03 14:53:00,
2013-01-03 10:03:00,11.0,2.0,30.21,NE,47,1.0,3.0,67,0.00,,,0.00,,2013-01-03 15:03:00,
2013-01-03 10:12:00,11.0,2.0,30.21,NE,47,1.0,3.0,67,0.00,,,0.00,,2013-01-03 15:12:00,
2013-01-03 10:23:00,12.0,3.0,30.21,NE,52,1.0,3.0,67,0.00,,,0.00,,2013-01-03 15:23:00,
2013-01-03 10:34:00,14.0,4.0,30.21,SE,127,1.0,2.0,65,0.00,,,0.00,,2013-01-03 15:34:00,
2013-01-03 10:43:00,14.0,4.0,30.21,SE,127,1.0,2.0,65,0.00,,,0.00,,2013-01-03 15:43:00,
2013-01-03 10:53:00,14.0,4.0,30.21,SE,131,1.0,3.0,64,0.00,,,0.00,,2013-01-03 15:53:00,
2013-01-03 11:03:00,15.0,5.0,30.20,SW,233,1.0,3.0,64,0.00,,,0.00,,2013-01-03 16:03:00,
2013-01-03 11:12:00,15.0,5.0,30.20,SW,233,1.0,3.0,64,0.00,,,0.00,,2013-01-03 16:12:00,
2013-01-03 11:23:00,16.0,6.0,30.20,SW,220,2.0,3.0,63,0.00,,,0.00,,2013-01-03 16:23:00,
2013-01-03 11:33:00,18.0,6.0,30.18,SSW,197,0.0,3.0,60,0.00,,,0.00,,2013-01-03 16:33:00,
2013-01-03 11:43:00,18.0,6.0,30.18,SSW,197,0.0,3.0,60,0.00,,,0.00,,2013-01-03 16:43:00,
2013-01-03 11:53:00,18.0,7.0,30.17,West,264,0.0,2.0,61,0.00,,,0.00,,2013-01-03 16:53:00,
2013-01-03 12:03:00,18.0,6.0,30.16,NNE,28,1.0,3.0,59,0.00,,,0.00,,2013-01-03 17:03:00,
2013-01-03 12:13:00,18.0,6.0,30.16,NNE,28,1.0,3.0,59,0.00,,,0.00,,2013-01-03 17:13:00,
2013-01-03 12:23:00,18.0,6.0,30.15,NNE,27,1.0,3.0,60,0.00,,,0.00,,2013-01-03 17:23:00,
2013-01-03 12:33:00,19.0,7.0,30.14,SSE,162,3.0,5.0,60,0.00,,,0.00,,2013-01-03 17:33:00,
2013-01-03 12:43:00,19.0,7.0,30.14,SSE,162,3.0,5.0,60,0.00,,,0.00,,2013-01-03 17:43:00,
2013-01-03 12:53:00,20.0,8.0,30.14,SSE,162,0.0,3.0,60,0.00,,,0.00,,2013-01-03 17:53:00,
2013-01-03 13:03:00,20.0,8.0,30.12,South,185,2.0,5.0,60,0.00,,,0.00,,2013-01-03 18:03:00,
2013-01-03 13:13:00,20.0,8.0,30.12,South,185,2.0,5.0,60,0.00,,,0.00,,2013-01-03 18:13:00,
2013-01-03 13:22:00,20.0,8.0,30.11,SSE,164,2.0,6.0,60,0.00,,,0.00,,2013-01-03 18:22:00,
2013-01-03 13:33:00,20.0,8.0,30.11,SE,145,1.0,6.0,60,0.00,,,0.00,,2013-01-03 18:33:00,
2013-01-03 13:43:00,20.0,8.0,30.11,SE,145,1.0,6.0,60,0.00,,,0.00,,2013-01-03 18:43:00,
2013-01-03 13:53:00,21.0,10.0,30.10,SSW,209,3.0,6.0,62,0.00,,,0.00,,2013-01-03 18:53:00,
2013-01-03 14:03:00,21.0,10.0,30.10,SSE,158,3.0,6.0,62,0.00,,,0.00,,2013-01-03 19:03:00,
2013-01-03 14:12:00,21.0,10.0,30.10,SSE,158,3.0,6.0,62,0.00,,,0.00,,2013-01-03 19:12:00,
2013-01-03 14:56:00,22.0,11.0,30.09,SSE,164,3.0,7.0,62,0.00,,,0.00,,2013-01-03 19:56:00,
2013-01-03 15:03:00,23.0,11.0,30.08,SSE,165,1.0,3.0,60,0.00,,,0.00,,2013-01-03 20:03:00,
2013-01-03 15:13:00,23.0,11.0,30.08,SSE,165,1.0,3.0,60,0.00,,,0.00,,2013-01-03 20:13:00,
2013-01-03 15:22:00,23.0,13.0,30.07,SSE,164,2.0,3.0,66,0.00,,,0.00,,2013-01-03 20:22:00,
2013-01-03 15:33:00,23.0,12.0,30.07,SSE,166,0.0,2.0,62,0.00,,,0.00,,2013-01-03 20:33:00,
2013-01-03 15:42:00,23.0,12.0,30.07,SSE,166,0.0,2.0,62,0.00,,,0.00,,2013-01-03 20:42:00,
2013-01-03 15:53:00,24.0,13.0,30.07,SSE,164,0.0,1.0,61,0.00,,,0.00,,2013-01-03 20:53:00,
2013-01-03 16:03:00,24.0,13.0,30.07,SSE,164,0.0,0.0,61,0.00,,,0.00,,2013-01-03 21:03:00,
2013-01-03 16:13:00,24.0,13.0,30.07,SSE,164,0.0,0.0,61,0.00,,,0.00,,2013-01-03 21:13:00,
2013-01-03 16:23:00,24.0,13.0,30.07,SSE,165,0.0,0.0,63,0.00,,,0.00,,2013-01-03 21:23:00,
2013-01-03 16:37:00,23.0,12.0,30.07,SSE,164,1.0,2.0,63,0.00,,,0.00,,2013-01-03 21:37:00,
2013-01-03 16:49:00,23.0,12.0,30.07,SSE,164,1.0,2.0,63,0.00,,,0.00,,2013-01-03 21:49:00,
2013-01-03 17:03:00,22.0,13.0,30.08,SSE,165,0.0,1.0,69,0.00,,,0.00,,2013-01-03 22:03:00,
2013-01-03 17:12:00,22.0,13.0,30.08,SSE,165,0.0,1.0,69,0.00,,,0.00,,2013-01-03 22:12:00,
2013-01-03 17:22:00,21.0,13.0,30.07,SSE,165,0.0,2.0,72,0.00,,,0.00,,2013-01-03 22:22:00,
2013-01-03 17:33:00,19.0,12.0,30.07,SSE,165,0.0,1.0,74,0.00,,,0.00,,2013-01-03 22:33:00,
2013-01-03 17:42:00,19.0,12.0,30.07,SSE,165,0.0,1.0,74,0.00,,,0.00,,2013-01-03 22:42:00,
2013-01-03 17:52:00,18.0,12.0,30.07,SSE,165,0.0,2.0,76,0.00,,,0.00,,2013-01-03 22:52:00,
2013-01-03 18:03:00,18.0,12.0,30.08,SSE,165,0.0,0.0,77,0.00,,,0.00,,2013-01-03 23:03:00,
2013-01-03 18:12:00,18.0,12.0,30.08,SSE,165,0.0,0.0,77,0.00,,,0.00,,2013-01-03 23:12:00,
2013-01-03 18:23:00,18.0,12.0,30.08,SSE,164,0.0,0.0,77,0.00,,,0.00,,2013-01-03 23:23:00,
2013-01-03 18:33:00,18.0,12.0,30.08,SSE,165,0.0,0.0,78,0.00,,,0.00,,2013-01-03 23:33:00,
2013-01-03 18:43:00,18.0,12.0,30.08,SSE,165,0.0,0.0,78,0.00,,,0.00,,2013-01-03 23:43:00,
2013-01-03 18:52:00,18.0,13.0,30.08,SSE,165,0.0,0.0,79,0.00,,,0.00,,2013-01-03 23:52:00,
2013-01-03 19:03:00,18.0,12.0,30.07,SSE,165,0.0,0.0,78,0.00,,,0.00,,2013-01-04 00:03:00,
2013-01-03 19:13:00,18.0,12.0,30.07,SSE,165,0.0,0.0,78,0.00,,,0.00,,2013-01-04 00:13:00,
2013-01-03 19:23:00,19.0,14.0,30.08,SSE,164,0.0,1.0,79,0.00,,,0.00,,2013-01-04 00:23:00,
2013-01-03 19:33:00,19.0,14.0,30.08,SSE,165,0.0,0.0,79,0.00,,,0.00,,2013-01-04 00:33:00,
2013-01-03 19:42:00,19.0,14.0,30.08,SSE,165,0.0,0.0,79,0.00,,,0.00,,2013-01-04 00:42:00,
2013-01-03 19:52:00,19.0,14.0,30.08,SSE,164,0.0,0.0,79,0.00,,,0.00,,2013-01-04 00:52:00,
2013-01-03 20:02:00,20.0,15.0,30.07,SSE,164,0.0,0.0,79,0.00,,,0.00,,2013-01-04 01:02:00,
2013-01-03 20:12:00,20.0,15.0,30.07,SSE,164,0.0,0.0,79,0.00,,,0.00,,2013-01-04 01:12:00,
2013-01-03 20:22:00,20.0,14.0,30.08,SSE,165,0.0,0.0,78,0.00,,,0.00,,2013-01-04 01:22:00,
2013-01-03 20:33:00,20.0,14.0,30.08,SSE,165,0.0,0.0,78,0.00,,,0.00,,2013-01-04 01:33:00,
2013-01-03 20:42:00,20.0,14.0,30.08,SSE,165,0.0,0.0,78,0.00,,,0.00,,2013-01-04 01:42:00,
2013-01-03 20:52:00,19.0,13.0,30.08,SSE,165,0.0,0.0,78,0.00,,,0.00,,2013-01-04 01:52:00,
2013-01-03 21:02:00,19.0,14.0,30.07,SSE,165,0.0,0.0,79,0.00,,,0.00,,2013-01-04 02:02:00,
2013-01-03 21:12:00,19.0,14.0,30.07,SSE,165,0.0,0.0,79,0.00,,,0.00,,2013-01-04 02:12:00,
2013-01-03 21:22:00,18.0,13.0,30.07,SSE,165,0.0,0.0,80,0.00,,,0.00,,2013-01-04 02:22:00,
2013-01-03 21:33:00,18.0,13.0,30.07,SSE,165,0.0,0.0,79,0.00,,,0.00,,2013-01-04 02:33:00,
2013-01-03 21:42:00,18.0,13.0,30.07,SSE,165,0.0,0.0,79,0.00,,,0.00,,2013-01-04 02:42:00,
2013-01-03 21:52:00,18.0,13.0,30.06,SSE,165,0.0,0.0,79,0.00,,,0.00,,2013-01-04 02:52:00,
2013-01-03 22:03:00,18.0,13.0,30.06,SSE,165,0.0,0.0,79,0.00,,,0.00,,2013-01-04 03:03:00,
2013-01-03 22:12:00,18.0,13.0,30.06,SSE,165,0.0,0.0,79,0.00,,,0.00,,2013-01-04 03:12:00,
2013-01-03 22:22:00,17.0,12.0,30.06,SSE,165,0.0,0.0,80,0.00,,,0.00,,2013-01-04 03:22:00,
2013-01-03 22:33:00,17.0,12.0,30.06,SSE,165,0.0,0.0,80,0.00,,,0.00,,2013-01-04 03:33:00,
2013-01-03 22:42:00,17.0,12.0,30.06,SSE,165,0.0,0.0,80,0.00,,,0.00,,2013-01-04 03:42:00,
2013-01-03 22:52:00,17.0,12.0,30.06,SSE,165,0.0,0.0,80,0.00,,,0.00,,2013-01-04 03:52:00,
2013-01-03 23:02:00,17.0,12.0,30.06,SSE,165,0.0,0.0,81,0.00,,,0.00,,2013-01-04 04:02:00,
2013-01-03 23:12:00,17.0,12.0,30.06,SSE,165,0.0,0.0,81,0.00,,,0.00,,2013-01-04 04:12:00,
2013-01-03 23:22:00,17.0,12.0,30.06,SSE,165,0.0,1.0,81,0.00,,,0.00,,2013-01-04 04:22:00,
2013-01-03 23:32:00,17.0,12.0,30.05,SSE,166,0.0,1.0,81,0.00,,,0.00,,2013-01-04 04:32:00,
2013-01-03 23:42:00,17.0,12.0,30.05,SSE,166,0.0,1.0,81,0.00,,,0.00,,2013-01-04 04:42:00,
2013-01-03 23:52:00,17.0,12.0,30.05,SSW,213,0.0,2.0,81,0.00,,,0.00,,2013-01-04 04:52:00,